Presure
112 108 103 112 110 121 117 118 120 124 117 138 126 110 124 136 131 129 132 134 148 121 120 126 140 133 135 125 144 147 201 155 153 161 156 165 175 171 154 152 170 126 177 164 119 137 164 169 150
122 121 113 113 121 113 118 128 131 125 109 113 117 150 125 138 127 125 140 140 138 122 127 142 139 134 129 141 141 146 161 150 159 158 155 158 163 161 168 164 163 148 170 151 171 147 131 134 156
125 120 114 127 116 122 123 132 115 138 128 130 134 123 119 134 128 129 126 131 131 120 123 135 122 129 155 149 158 144 157 155 159 148 149 153 161 164 172 163 154 151 171 162 145 149 139 113 145
104 117 133 113 115 135 137 119 108 136 142 138 115 133 125 120 125 130 123 136 133 125 126 120 127 127 129 151 137 151 154 170 152 157 156 154 158 167 161 179 157 177 174 162 156 156 161 157 91
132 126 120 137 135 135 132 100 142 134 123 124 133 131 124 143 125 134 134 132 136 126 129 103 119 131 131 145 134 141 161 154 154 158 172 164 168 160 182 171 162 150 166 153 149 163 163 160 93
104 130 115 128 137 117 120 133 134 116 124 147 119 124 128 145 123 124 139 138 123 151 144 144 124 125 149 139 128 145 155 147 152 159 161 199 172 165 164 173 164 172 149 163 159 162 167 159 167
139 123 126 133 107 130 142 138 112 129 117 134 132 139 131 129 125 122 103 139 133 157 144 154 119 170 134 142 144 156 158 143 147 158 165 181 152 151 172 173 162 164 160 158 160 167 147 160 161
137 139 148 115 118 123 143 136 142 126 141 128 120 141 129 134 112 111 143 126 135 119 128 118 164 134 158 124 131 128 149 146 147 155 161 168 154 170 175 177 165 165 157 156 166 150 172 150 154
122 137 132 115 113 129 135 116 124 127 132 134 138 140 129 141 124 129 140 152 123 154 151 148 131 128 121 140 133 136 149 144 151 162 154 164 161 159 195 168 168 155 166 171 164 160 154 155 155
137 132 136 133 131 144 140 133 137 142 131 140 138 133 121 145 113 135 122 157 119 129 131 132 125 122 140 128 132 141 142 145 154 145 163 164 163 152 174 174 169 151 159 184 173 173 149 154 152
147 145 140 140 146 147 144 146 145 152 143 144 132 157 154 110 123 150 122 118 134 131 128 178 121 126 120 125 131 131 144 145 134 158 154 182 164 156 156 192 168 157 170 165 164 157 150 152 168
150 154 149 146 143 141 143 144 144 148 154 152 145 117 149 147 143 117 127 116 130 128 115 132 168 148 140 131 143 147 137 149 148 158 165 178 161 166 165 189 177 165 168 160 157 154 155 162 160
156 151 155 156 154 155 152 156 154 161 152 152 151 144 146 149 152 156 121 136 116 140 159 114 164 131 132 128 137 150 144 149 149 155 160 161 147 161 152 198 182 171 150 159 164 154 154 158 156
153 143 150 153 153 151 154 158 162 162 167 171 164 156 167 173 171 171 172 125 110 188 148 122 140 139 139 119 133 149 142 141 151 151 147 161 163 150 140 222 199 168 157 156 154 162 137 142 153
156 153 151 147 135 135 135 149 149 149 155 158 170 177 170 114 182 180 172 206 199 188 131 145 155 142 132 161 135 142 118 148 144 152 154 157 208 147 161 226 220 165 155 166 159 166 173 143 143
168 169 161 161 161 163 163 144 151 156 157 159 165 168 173 174 173 176 155 168 178 159 176 135 144 131 161 144 147 145 144 144 141 155 152 154 162 174 161 221 238 171 156 173 156 145 154 163 165
180 166 172 178 157 178 170 161 163 157 156 162 162 156 167 118 176 175 171 159 160 170 163 166 134 151 146 169 139 139 167 148 165 163 149 170 195 186 155 199 203 163 161 153 155 156 142 156 165
199 188 181 167 146 178 178 185 178 165 152 150 164 165 166 175 175 173 173 170 154 137 166 144 172 157 134 163 139 148 151 142 170 144 148 158 185 199 160 166 218 173 157 156 157 151 143 153 145
218 132 220 218 178 191 188 169 177 183 179 142 150 155 165 166 176 167 171 195 180 126 141 139 134 128 165 138 166 154 157 144 142 159 151 163 174 191 163 165 226 182 138 164 168 153 153 155 144
232 207 208 218 218 125 180 188 191 181 188 187 143 149 150 162 174 169 174 151 147 170 152 157 157 158 165 140 131 171 145 153 143 177 148 159 166 192 166 187 209 151 163 170 170 138 168 158 141
157 254 238 228 219 206 221 173 183 194 186 182 188 156 155 155 158 160 174 195 170 177 157 157 151 157 151 165 165 146 166 151 160 144 193 175 189 201 174 166 161 183 163 157 174 179 169 168 166
239 170 158 248 214 214 214 213 214 168 180 182 195 186 183 157 161 146 173 192 179 170 175 167 163 176 160 151 143 144 148 155 137 165 184 217 210 203 174 153 151 171 147 155 158 160 161 171 153
156 168 142 217 160 235 245 212 209 209 204 155 192 192 178 145 166 152 156 159 196 182 160 177 174 158 158 142 147 151 165 139 146 167 147 171 202 205 164 157 161 154 127 160 153 151 147 154 162
163 176 212 165 152 167 240 242 224 211 211 201 178 179 191 154 144 171 152 186 160 186 168 162 166 149 157 147 153 152 182 148 158 166 175 163 209 218 176 163 156 171 143 163 150 152 157 151 125
254 242 237 148 146 147 153 245 249 241 211 205 197 189 185 190 201 168 154 149 152 159 165 170 152 153 151 154 162 156 162 167 155 143 177 184 152 210 168 138 159 160 144 155 144 160 162 144 157
242 257 238 230 155 145 141 141 163 243 223 195 200 206 193 192 185 200 170 168 155 151 155 157 158 151 159 163 179 143 199 145 187 172 183 192 194 185 152 152 142 153 154 151 137 147 157 162 137
272 126 245 235 214 152 139 144 139 165 246 260 229 197 204 193 181 170 213 122 160 154 129 152 138 123 131 163 195 156 216 222 188 155 189 189 180 164 163 187 190 162 155 139 134 148 136 143 138
260 257 198 237 223 229 140 142 136 235 238 244 258 219 195 192 233 184 191 195 153 166 162 163 166 168 169 232 215 205 182 170 170 179 168 168 176 167 153 147 156 156 162 136 143 168 138 157 134
265 261 263 219 249 251 246 238 144 237 239 237 259 243 209 223 186 192 162 185 180 179 182 166 156 160 175 166 187 193 170 169 150 172 163 163 148 163 162 153 165 166 164 184 168 166 172 160 170
244 239 240 284 261 257 247 237 233 247 227 236 260 245 234 219 91 204 193 176 184 179 194 181 182 180 187 169 154 178 189 178 165 169 170 158 154 170 215 202 171 180 168 170 141 134 166 173 171
Wind_Speed
7 5 8 4 3 14 5 7 7 3 5 15 7 15 11 23 19 20 28 23 29 21 23 27 27 28 34 24 40 35 34 29 25 28 27 27 21 16 20 22 17 20 12 11 13 16 17 24 23
16 12 11 4 15 7 10 13 8 1 7 10 9 26 12 24 13 15 31 28 21 21 26 24 27 33 35 37 38 38 43 32 30 30 32 30 27 26 18 18 17 21 14 15 16 14 16 18 21
17 18 9 18 10 14 11 20 7 19 15 22 14 11 12 18 12 16 14 20 19 20 25 28 28 31 29 37 37 35 41 37 35 31 29 30 30 25 14 20 24 22 14 14 15 16 16 17 16
7 14 22 10 10 28 26 10 7 20 27 21 12 16 11 13 11 16 14 27 23 21 24 26 31 32 36 32 39 39 41 40 37 36 36 32 30 25 23 10 23 12 12 16 17 17 16 16 17
27 25 17 26 23 22 15 5 29 16 14 9 11 10 10 23 11 18 24 20 25 18 23 11 25 32 36 35 38 41 39 36 34 39 30 29 27 25 14 13 19 21 10 13 17 16 19 14 14
4 26 9 20 26 8 7 18 18 12 12 26 8 13 12 25 10 14 25 27 17 27 26 28 24 28 29 35 37 41 33 34 37 41 33 19 20 22 23 13 12 10 19 14 16 14 18 18 20
33 21 21 24 4 19 35 24 9 20 10 17 17 17 13 13 10 12 8 22 22 28 27 31 24 28 31 32 39 38 36 34 37 44 37 26 26 28 17 8 11 11 11 12 14 16 11 23 20
25 29 45 8 12 15 27 20 27 17 26 18 16 21 16 14 7 10 25 14 15 13 14 16 21 25 18 30 36 37 32 32 33 39 37 31 25 30 18 5 7 7 13 10 11 13 16 15 18
19 27 24 11 13 21 25 12 16 19 21 21 20 18 18 22 13 15 20 33 13 19 31 33 18 22 25 27 31 31 31 31 33 39 33 30 25 24 5 13 4 11 7 7 9 14 17 23 19
30 24 26 21 22 40 31 22 21 24 21 29 24 17 14 29 3 17 10 29 13 13 15 13 15 21 20 27 29 29 30 28 32 26 35 26 24 19 14 12 4 14 6 12 11 11 16 19 18
40 36 30 31 40 39 34 33 30 33 25 28 20 38 35 6 17 27 9 8 18 12 11 29 16 18 20 24 25 25 27 26 20 37 29 25 23 18 17 8 4 7 7 10 17 17 12 17 23
41 39 36 38 34 31 30 29 26 27 33 32 29 12 29 24 21 6 13 6 7 12 8 7 29 16 14 17 23 23 22 25 26 36 35 31 22 21 20 14 1 3 3 7 10 14 16 17 20
39 33 36 39 39 42 39 36 32 36 31 30 32 27 27 26 29 30 4 20 4 18 26 8 30 8 19 18 16 20 24 26 27 33 35 30 22 20 20 10 3 2 11 8 10 10 12 14 14
36 28 31 34 33 35 36 33 32 32 33 34 34 29 32 33 32 32 29 4 1 23 18 10 10 7 19 17 17 17 19 21 28 27 28 32 23 22 18 1 7 5 8 7 8 10 14 13 10
38 39 34 31 21 23 22 30 28 27 30 31 33 31 30 5 31 30 27 12 17 20 4 6 15 11 8 16 14 17 19 26 26 33 31 32 22 23 20 2 7 5 9 2 5 11 12 9 11
40 43 40 40 38 36 36 27 29 31 30 30 29 28 28 28 28 26 16 26 20 16 17 4 8 3 17 7 13 14 18 25 29 39 33 32 27 18 20 10 6 5 6 2 8 13 8 4 8
48 37 42 48 33 46 39 34 34 32 31 33 32 29 29 8 26 22 14 17 14 16 18 18 17 13 9 35 9 14 38 28 29 36 32 30 24 16 20 9 6 4 3 9 8 9 8 9 6
53 50 46 36 29 40 43 44 42 36 31 31 34 35 32 29 26 23 25 27 19 10 19 14 12 25 7 31 15 25 26 26 36 29 30 30 23 12 13 11 10 5 4 8 6 6 9 5 8
46 16 46 48 40 43 39 36 40 40 39 28 31 32 34 31 29 26 24 27 28 12 11 8 13 6 31 10 35 21 30 25 27 36 31 30 21 10 10 11 11 5 6 4 6 7 4 4 1
43 42 42 43 44 16 39 42 43 41 40 38 28 30 27 31 32 27 27 18 17 24 18 20 21 24 27 14 11 33 25 24 25 24 27 23 21 11 10 3 4 5 9 3 9 3 3 7 2
25 36 41 45 42 40 42 32 40 43 40 36 37 37 35 29 27 24 30 30 25 29 23 23 19 26 20 28 28 21 26 25 30 27 21 23 15 8 5 6 6 1 1 8 8 10 4 4 4
33 26 23 39 38 40 41 41 42 37 38 35 37 37 40 35 32 21 30 30 29 28 30 28 29 30 24 20 17 19 22 26 26 24 22 20 13 9 6 9 8 4 5 9 4 6 9 6 3
26 25 21 27 25 38 37 41 40 42 41 33 37 38 41 27 36 28 27 25 35 33 26 32 31 23 23 18 21 24 26 19 25 22 27 16 13 11 7 9 8 6 9 3 3 5 6 5 5
28 26 29 27 25 27 36 38 42 43 39 39 39 39 39 29 26 37 29 34 28 34 30 27 29 23 24 24 26 24 25 23 24 23 18 17 8 14 10 8 5 5 7 2 2 5 6 8 10
30 31 32 18 25 26 30 35 39 43 37 36 39 41 40 40 41 40 32 30 31 31 30 28 26 25 24 26 28 22 25 25 19 26 20 12 16 8 9 10 7 6 14 5 9 7 7 12 10
32 32 32 29 24 27 27 23 24 39 40 34 38 41 41 39 41 41 40 36 34 32 30 30 29 24 27 27 28 24 20 27 12 17 18 2 2 7 12 10 10 12 8 8 13 10 8 9 17
31 21 34 30 31 25 26 25 20 22 36 30 39 40 39 40 40 35 40 4 33 32 22 31 21 18 20 28 26 25 14 12 14 25 13 11 8 13 12 9 12 17 17 16 15 14 13 16 16
34 34 27 32 34 33 28 25 23 36 35 35 31 40 41 38 37 38 37 36 30 36 36 33 30 29 26 15 15 15 17 20 22 11 15 15 10 13 17 13 13 14 16 19 19 12 15 16 16
29 29 33 29 35 35 34 37 27 34 34 33 30 36 41 39 38 37 31 36 34 32 35 32 31 26 22 27 15 15 19 19 22 16 18 17 23 14 15 21 21 18 18 16 18 19 15 20 17
29 32 32 30 33 31 36 38 33 31 31 29 28 33 37 36 17 36 37 35 35 35 27 30 29 28 17 24 31 16 18 22 26 25 22 25 23 20 21 21 22 25 21 17 20 17 14 13 14
Wind_Direction
194 115 100 222 34 254 246 279 243 226 1 341 4 359 337 354 4 3 3 2 5 12 11 0 359 3 7 357 1 7 19 8 11 14 13 18 20 11 8 1 360 25 24 20 60 25 31 26 44
208 209 194 260 252 287 270 295 267 341 332 306 348 331 348 353 355 347 4 3 1 12 356 354 357 1 15 359 359 9 18 10 16 17 13 13 14 11 2 356 347 358 24 34 30 23 62 52 32
225 230 235 245 256 263 279 286 304 302 303 318 327 318 309 349 342 339 337 352 352 19 12 355 11 5 350 356 11 8 17 16 10 1 6 9 10 7 5 354 358 1 21 31 47 42 46 78 46
110 246 243 266 260 272 279 267 304 301 305 302 291 325 302 314 327 335 323 350 348 5 2 19 355 2 1 7 358 10 11 17 12 3 2 2 4 2 2 6 347 26 38 44 41 31 22 43 106
239 230 239 255 258 267 279 18 291 286 291 269 305 296 289 328 312 338 341 340 342 357 2 31 8 354 0 358 356 3 13 12 11 8 4 353 352 357 355 347 350 4 39 34 23 18 25 39 105
64 233 257 245 259 245 224 276 283 260 284 295 283 261 264 322 294 318 341 345 3 329 326 332 2 5 348 355 3 2 9 10 13 10 8 354 352 357 346 354 1 44 3 49 33 34 18 46 32
241 234 239 254 11 264 279 275 262 274 276 281 278 299 264 267 279 308 34 332 333 319 325 313 26 345 354 357 356 6 6 5 12 11 6 22 19 12 340 358 346 354 12 38 52 42 32 47 42
244 245 254 267 259 257 272 261 278 266 282 276 277 291 263 280 354 16 320 353 335 10 16 17 332 10 359 13 0 0 2 0 9 13 6 11 20 2 344 342 344 357 349 16 40 53 70 58 43
231 255 248 267 280 253 264 274 254 255 271 273 279 281 247 297 287 304 305 311 7 312 298 301 11 6 12 359 355 351 358 358 5 11 6 5 14 23 309 11 32 11 48 66 75 85 72 66 58
249 248 257 256 257 264 268 265 263 274 260 282 279 270 288 299 11 317 326 307 32 5 17 358 2 12 356 11 350 347 355 3 12 12 10 5 11 8 17 3 99 9 357 78 86 74 79 72 66
252 251 256 263 265 266 268 274 276 278 277 279 256 287 288 278 310 298 15 25 313 322 341 283 21 360 14 4 344 343 345 360 356 8 11 14 5 358 14 342 48 17 85 83 93 87 77 76 70
250 251 256 261 264 265 265 267 273 276 279 282 282 272 283 287 282 309 309 17 12 345 334 15 282 336 353 2 341 343 349 353 11 8 5 10 9 5 7 359 62 340 106 53 87 84 71 77 83
255 255 255 255 258 264 267 270 274 279 279 277 277 275 277 280 283 282 286 297 100 312 290 6 293 356 347 349 334 356 350 353 9 7 5 2 358 5 4 9 215 227 31 20 90 75 61 74 96
256 257 256 256 254 259 266 270 273 276 278 275 271 272 277 279 278 279 280 1 283 280 290 336 314 338 343 344 332 3 351 357 3 11 6 355 351 350 2 339 198 141 44 20 46 107 69 56 49
249 253 253 251 256 262 274 265 266 266 267 269 276 278 279 253 281 283 282 271 266 272 297 323 318 328 324 336 335 356 340 355 8 2 3 356 355 343 346 323 178 133 37 117 30 119 123 21 82
253 254 253 257 256 257 260 268 265 265 267 270 273 278 278 278 279 282 279 285 268 274 281 235 315 15 330 330 342 0 355 7 1 349 358 353 342 341 336 355 189 128 44 162 65 44 85 165 79
261 254 257 258 264 262 262 261 262 265 269 272 272 271 272 286 272 272 252 265 265 261 292 295 324 309 355 318 352 3 329 357 345 340 355 338 342 342 339 18 191 66 38 66 54 38 56 100 60
258 260 260 259 267 259 262 261 262 261 261 269 266 270 272 270 268 266 264 272 284 301 266 296 342 312 2 315 6 336 351 1 334 358 347 336 336 344 331 339 203 156 46 49 76 62 47 117 71
254 270 258 257 260 260 258 260 262 261 260 270 270 271 268 273 269 274 270 245 258 268 300 316 320 344 299 356 312 330 336 356 353 333 344 332 324 327 316 325 212 166 8 298 305 94 96 117 148
255 256 256 256 254 279 254 255 256 257 257 255 274 273 276 269 266 270 267 274 284 266 292 284 289 297 300 341 2 306 348 339 345 316 337 324 322 294 313 28 231 335 74 315 291 41 326 84 154
270 254 252 251 252 252 249 256 252 252 252 250 251 265 272 276 275 276 265 250 265 256 281 287 299 297 290 304 314 339 318 335 325 334 305 316 317 260 264 298 298 168 344 70 315 281 320 330 290
255 268 269 253 256 255 255 251 248 254 253 251 250 248 250 273 271 274 267 249 252 265 262 275 282 282 304 320 331 334 335 326 343 319 313 284 275 241 227 288 293 74 321 106 79 80 76 32 54
266 265 268 260 261 250 247 252 248 250 250 257 247 248 250 280 263 278 277 274 247 255 277 267 271 282 301 318 325 325 309 332 306 311 325 305 276 228 239 259 261 258 40 91 107 90 125 88 22
272 264 262 263 263 264 246 247 246 245 242 245 246 248 245 264 280 257 274 250 268 256 269 268 280 304 302 315 312 318 293 308 304 306 297 300 278 236 218 231 258 217 301 337 355 10 351 26 320
263 258 256 250 262 265 267 247 245 244 244 239 243 246 244 245 241 257 270 280 277 272 273 275 295 299 302 301 297 302 295 292 305 318 288 302 303 291 266 322 255 235 308 294 342 336 324 341 357
268 262 262 258 267 257 270 273 269 247 247 242 243 244 244 243 245 242 257 258 272 281 277 278 281 295 288 287 286 304 286 306 280 296 265 112 162 238 292 293 305 289 267 287 333 322 319 331 347
269 270 255 252 255 271 275 275 278 266 249 244 237 241 242 243 246 251 242 217 256 261 273 276 280 267 296 277 288 290 248 179 215 293 240 209 200 237 242 266 255 273 266 289 312 313 322 323 333
265 261 266 256 254 252 270 273 276 246 246 247 234 239 239 239 237 245 249 249 254 255 261 267 276 274 276 274 268 250 249 267 278 273 287 286 241 260 270 285 289 294 276 292 290 278 307 289 321
269 268 266 267 259 257 251 246 273 244 243 244 238 234 240 235 241 241 243 245 250 257 254 258 263 272 264 261 256 241 262 257 295 259 278 259 290 280 278 299 280 278 268 270 265 269 282 272 266
260 262 268 267 260 252 249 247 246 246 245 243 241 232 237 236 284 236 240 243 244 252 254 256 258 264 256 266 277 258 235 249 271 252 247 265 275 272 248 241 263 258 268 270 281 282 289 280 272